Wetbulb
70.39 68.26 68.68 67.01 55.02 50.70 45.30 48.26 50.54 50.62 50.37 52.17 54.26 53.74 53.15 55.64 55.92 49.89 64.71 69.19 71.54 72.11 72.73 71.29 72.23 71.14 70.70 70.96 71.11 70.98 70.80 70.27 69.64 69.29 69.43 69.73 70.25 71.00 71.65 72.05 72.18 72.56 73.06 73.61 73.42 73.65 73.68 73.73 73.81
68.65 69.25 67.77 62.07 50.87 46.54 45.45 49.36 50.55 52.83 53.17 54.41 55.46 54.89 53.81 54.84 61.56 64.74 66.18 70.36 72.11 72.23 72.14 70.63 72.88 71.48 70.81 70.17 70.38 70.68 70.41 69.72 69.12 68.89 68.98 69.15 69.12 69.27 69.48 69.70 69.83 70.12 70.61 71.72 72.23 71.60 71.71 72.59 72.61
66.17 68.74 60.29 56.53 52.51 48.63 45.75 50.59 52.19 53.58 54.32 54.59 54.57 56.16 55.23 56.25 63.79 65.42 67.65 71.25 72.15 71.47 71.09 70.57 72.75 71.67 71.25 70.59 70.06 70.26 70.05 69.52 69.12 69.27 70.19 70.64 70.68 70.12 69.44 69.64 69.36 68.96 68.80 68.57 68.75 68.78 68.83 69.17 68.98
62.59 62.35 59.25 53.02 51.87 54.92 52.62 51.94 53.66 53.16 54.25 57.32 56.71 54.47 56.82 61.09 64.91 65.02 70.36 71.48 70.96 70.83 69.76 72.59 73.02 71.91 71.51 71.49 71.24 70.66 70.64 71.05 69.85 70.03 70.85 71.14 71.31 71.69 72.02 71.66 70.81 71.00 71.21 70.89 70.44 70.05 70.01 70.29 70.54
60.86 59.18 53.22 50.08 51.77 53.65 53.37 54.72 54.20 53.12 53.68 55.53 56.31 54.11 53.99 59.70 64.72 69.36 69.78 71.13 70.28 69.50 70.33 71.04 73.42 72.42 72.17 72.05 71.90 71.67 71.40 71.60 71.52 71.39 71.29 71.75 72.09 71.98 72.01 71.93 71.18 70.47 70.51 70.43 70.18 69.82 69.97 70.43 70.32
54.25 56.77 49.85 47.82 50.68 54.66 53.07 54.86 54.26 52.65 53.22 55.27 55.47 53.95 54.86 62.46 67.02 68.54 70.06 69.92 70.70 70.06 70.31 70.68 72.70 72.75 72.49 72.27 72.36 72.50 72.06 72.05 71.90 71.90 71.76 72.08 72.04 71.69 71.12 69.87 68.86 67.23 67.56 67.67 66.96 67.39 69.13 68.19 66.49
52.79 53.08 49.86 49.65 50.32 51.76 53.83 55.25 52.21 52.46 53.07 54.29 57.35 52.95 54.15 60.02 66.56 68.87 69.36 69.88 70.42 70.55 69.93 69.86 70.80 71.94 72.81 72.97 73.26 72.98 72.74 72.45 72.47 72.16 71.53 70.89 70.48 68.89 67.75 65.80 65.29 65.19 65.65 64.74 64.80 64.44 64.53 64.64 64.25
54.67 54.16 50.83 51.10 50.51 50.70 55.36 55.52 56.07 53.85 51.97 57.48 58.79 52.51 52.56 57.68 67.08 68.31 69.09 69.52 69.37 69.31 69.34 68.90 70.81 71.50 71.12 71.40 73.10 72.78 72.77 72.56 71.58 70.41 68.91 66.17 65.72 64.67 64.02 64.34 64.50 63.84 63.73 63.33 62.87 62.30 61.88 62.24 62.38
58.52 50.34 48.70 50.78 51.81 53.35 55.20 52.43 52.97 54.69 54.01 54.24 58.15 56.72 58.31 60.32 66.90 66.18 65.90 68.26 68.91 68.49 67.97 68.75 69.43 70.20 69.95 70.13 71.41 71.85 72.11 71.11 69.48 66.57 64.21 59.19 54.04 55.04 56.45 63.93 63.00 62.55 62.24 61.79 61.37 60.89 60.02 57.41 58.00
52.97 48.32 50.28 55.08 55.48 53.43 55.00 51.94 51.00 52.66 52.84 53.45 56.25 58.53 60.36 61.34 64.84 63.65 64.38 65.52 66.91 66.92 67.79 68.26 68.87 68.33 68.53 70.11 66.22 62.44 63.97 63.12 63.37 56.57 52.35 51.27 51.84 53.41 55.11 58.43 60.44 59.97 59.63 59.63 59.40 58.49 56.68 51.52 45.08
52.50 49.45 53.63 55.22 56.58 57.33 54.66 50.98 51.40 51.46 49.49 54.26 56.31 57.03 59.50 60.04 62.96 63.05 64.13 65.66 66.19 66.72 68.12 68.21 68.05 67.78 67.18 65.73 60.11 53.85 49.67 49.26 55.02 50.08 49.10 50.02 46.71 45.43 44.60 44.31 44.51 44.51 51.86 44.97 46.52 45.17 44.94 43.94 44.31
50.98 54.42 55.66 56.30 55.22 54.77 53.85 52.71 48.94 52.16 51.76 54.92 58.38 59.43 59.49 58.83 60.65 62.25 63.13 64.96 64.80 65.40 67.47 68.43 67.83 66.31 62.16 59.58 53.96 49.08 46.23 45.99 45.78 45.78 45.81 44.51 43.43 43.22 43.22 43.46 43.47 43.45 43.37 43.08 43.08 42.93 43.40 43.73 44.00
51.08 54.04 56.95 56.68 55.14 53.78 53.64 51.26 49.94 49.46 51.93 55.28 59.67 59.81 59.64 59.72 59.87 61.82 63.06 64.72 65.06 65.59 66.76 67.84 66.32 61.75 58.21 54.91 51.98 46.46 46.46 45.09 45.11 45.04 45.24 44.29 43.61 43.11 43.60 43.19 43.56 43.34 43.39 42.91 42.64 42.69 42.86 42.79 43.33
52.72 54.10 55.01 55.61 53.58 54.37 51.74 51.30 51.74 50.94 52.14 57.91 59.16 58.72 59.21 59.67 59.83 59.10 59.93 63.49 64.62 65.84 66.41 66.22 63.37 58.38 54.37 52.20 49.17 45.67 45.22 44.67 44.46 44.23 44.54 45.26 44.66 43.99 43.98 43.73 43.75 43.59 42.96 42.76 42.90 42.49 42.30 42.02 42.16
53.64 50.92 50.61 51.14 52.05 51.65 54.25 48.82 48.01 51.44 52.06 55.56 56.99 56.67 58.39 59.47 60.11 59.80 60.94 63.71 64.79 65.85 65.03 62.86 58.57 54.88 53.01 49.44 46.82 45.62 45.49 45.86 44.86 44.86 45.14 45.64 45.31 44.72 43.89 43.43 43.09 42.72 43.60 43.84 43.53 43.27 42.92 42.73 43.45
48.70 47.55 44.00 49.17 50.32 49.97 51.32 44.86 49.96 53.76 51.81 51.78 54.49 55.08 56.79 57.96 59.54 59.25 62.12 63.75 64.93 64.03 61.97 58.82 57.61 50.85 48.18 48.47 46.36 45.99 45.50 45.00 44.58 45.11 45.64 46.82 46.49 45.20 43.98 43.70 43.55 43.73 44.17 43.66 42.73 42.51 42.24 41.83 41.33
44.27 39.88 41.66 45.02 51.16 49.86 49.11 45.01 49.39 54.00 51.74 50.11 49.49 51.58 53.72 54.61 53.30 57.57 61.58 61.40 62.58 62.04 57.00 53.50 49.22 49.22 47.72 45.57 45.67 45.20 45.09 44.53 44.05 44.13 44.79 46.15 46.97 46.20 44.48 43.98 43.54 43.93 43.54 42.69 42.61 41.93 41.34 40.83 41.16
38.84 40.72 41.51 41.78 47.58 49.91 46.87 46.73 50.26 53.62 54.44 50.06 48.98 49.93 52.16 52.89 54.20 59.13 60.40 60.06 60.98 57.21 56.10 49.58 48.02 46.13 45.08 44.36 43.63 43.39 43.82 43.48 43.58 43.78 44.41 45.74 46.39 46.12 44.53 43.92 43.75 43.38 42.90 42.02 41.53 40.82 40.88 40.36 39.74
44.63 43.77 42.37 44.50 48.95 46.82 46.17 46.89 48.77 52.89 52.88 52.39 52.21 49.88 47.74 49.56 53.79 57.91 57.85 53.13 49.19 48.20 47.25 47.09 45.86 44.11 44.62 42.49 42.33 41.88 42.64 42.44 42.93 43.81 45.34 44.99 45.41 45.80 44.40 43.84 43.20 43.34 42.38 41.67 41.43 40.79 40.07 39.65 39.52
45.85 45.20 42.47 43.89 50.24 46.32 45.33 45.55 49.60 51.45 51.10 50.43 51.17 48.63 46.06 48.19 51.96 54.09 51.95 48.09 50.05 47.68 47.45 45.57 46.27 44.20 44.07 43.62 42.51 42.77 42.39 42.46 43.31 44.44 44.92 45.06 44.81 44.94 44.56 43.94 43.35 42.61 42.04 40.69 40.32 39.86 38.71 38.86 38.31
45.07 42.95 41.92 43.41 45.92 44.45 44.99 42.72 45.15 47.67 49.36 47.16 46.02 45.64 45.45 46.44 50.19 49.72 47.84 46.70 45.41 45.15 46.16 46.35 44.61 44.44 44.12 44.31 44.55 44.21 45.38 44.09 43.94 43.75 44.02 44.28 44.89 44.56 44.09 43.25 42.60 41.78 40.86 40.45 39.44 38.95 38.52 37.37 37.02
42.36 48.03 46.46 44.75 42.28 38.46 43.03 35.90 38.62 40.34 43.12 42.77 42.18 42.45 43.00 44.37 47.60 47.32 46.91 45.35 45.12 45.22 45.29 45.33 44.65 44.09 44.61 44.53 44.79 44.45 43.97 43.01 43.40 43.79 43.93 44.28 44.22 43.77 44.10 43.16 41.66 40.75 40.00 39.37 38.82 40.34 38.20 36.97 35.85
44.88 48.73 46.94 44.92 40.81 38.09 37.13 35.09 37.45 37.17 38.25 39.94 40.07 41.07 41.74 43.01 45.05 44.62 44.28 46.71 44.37 44.60 44.54 43.90 43.43 43.50 43.74 43.69 44.13 43.73 42.78 42.50 42.70 43.80 44.23 43.98 43.62 43.87 43.75 42.54 41.02 40.11 39.38 38.69 38.78 37.95 36.90 36.29 35.73
47.59 43.22 41.90 40.49 38.36 32.15 37.31 37.45 36.16 35.81 38.31 38.12 38.59 40.21 41.68 42.59 42.63 43.57 43.15 43.88 43.60 43.22 43.35 43.03 42.95 42.58 43.05 43.01 43.32 43.34 42.60 42.53 43.10 42.64 42.42 41.62 41.43 41.34 41.44 41.83 40.41 39.94 39.45 38.96 38.69 37.81 36.82 36.35 35.19
43.99 39.77 31.22 30.67 32.74 31.57 35.65 34.75 38.70 37.28 37.92 39.47 40.20 38.18 39.29 39.69 40.58 41.89 42.07 42.28 42.94 42.91 43.37 43.60 43.36 43.00 42.90 42.91 43.04 42.90 42.51 41.37 41.47 41.51 41.12 40.02 39.61 39.54 39.69 39.91 39.49 38.91 38.78 38.62 37.78 36.63 35.84 35.41 34.46
40.64 40.36 31.79 27.31 25.99 29.98 35.15 30.57 35.36 37.22 39.15 39.87 40.61 39.45 39.28 39.11 39.58 40.93 42.01 42.27 42.49 43.13 43.37 43.62 43.26 42.91 42.58 42.17 41.68 41.86 42.75 42.23 41.14 40.31 39.16 38.71 38.73 38.68 39.42 39.27 38.58 38.38 38.21 37.72 36.79 35.56 35.42 34.74 34.18
39.97 37.18 42.51 32.65 29.72 28.30 30.40 32.05 35.44 37.49 37.90 38.32 38.74 38.97 38.33 38.68 39.16 39.97 40.40 40.59 40.82 41.41 42.20 42.74 41.44 40.34 40.43 39.80 39.67 39.02 39.43 39.71 39.21 38.34 38.12 38.13 38.09 40.80 38.69 37.67 36.88 36.30 36.06 35.80 34.85 34.02 33.56 33.56 33.13
41.06 45.19 35.73 33.78 26.94 24.81 27.08 27.55 31.19 33.92 35.83 37.22 37.15 36.75 37.41 38.10 38.48 38.99 39.67 39.79 39.41 39.63 39.85 40.77 40.88 40.21 39.70 39.46 38.79 38.67 37.95 38.18 37.93 37.65 37.41 37.42 36.95 36.69 36.18 36.11 35.61 35.50 35.21 34.76 33.59 32.73 33.02 32.32 32.49
38.22 35.76 35.45 34.51 30.77 26.26 24.34 28.99 34.45 36.05 37.36 37.09 37.13 37.50 37.89 38.03 38.52 38.74 38.61 38.74 38.89 38.83 39.11 38.98 39.47 39.61 39.05 38.91 37.86 37.23 37.14 37.32 37.11 37.15 36.71 36.24 35.66 35.39 35.47 35.52 35.10 34.76 34.38 34.05 32.81 32.39 32.65 32.33 32.44
39.64 36.17 36.78 31.66 29.74 26.98 25.77 28.92 34.97 35.65 38.74 38.95 37.69 38.59 38.32 39.20 39.50 38.92 38.22 37.93 38.11 38.01 38.01 37.95 38.19 38.55 38.52 38.64 37.63 37.44 37.43 36.91 36.18 35.98 35.36 35.04 34.46 34.72 34.62 34.60 34.34 34.01 33.92 33.51 32.74 32.50 33.24 32.62 32.68
MSLP
1009.88 1009.78 1010.08 1010.62 1011.99 1011.99 1011.58 1011.04 1010.47 1010.38 1010.25 1010.09 1010.14 1010.57 1011.43 1012.26 1012.79 1013.84 1013.34 1013.50 1013.65 1014.09 1014.31 1014.61 1014.88 1015.05 1015.20 1015.35 1015.46 1015.52 1015.60 1015.67 1015.72 1015.74 1015.69 1015.65 1015.63 1015.64 1015.62 1015.64 1015.57 1015.48 1015.37 1015.37 1015.42 1015.39 1015.41 1015.30 1015.15
1009.83 1009.99 1010.46 1011.22 1011.88 1012.11 1011.43 1010.56 1010.31 1010.12 1010.19 1010.19 1010.21 1010.93 1011.58 1012.42 1012.66 1013.43 1013.65 1013.71 1013.64 1013.97 1014.35 1014.70 1014.96 1015.21 1015.38 1015.56 1015.64 1015.73 1015.83 1015.91 1015.96 1015.98 1015.97 1015.90 1015.92 1015.89 1015.96 1015.91 1015.95 1015.99 1015.94 1015.87 1015.88 1015.83 1015.77 1015.66 1015.55
1009.77 1009.88 1010.78 1011.45 1011.72 1011.64 1010.96 1010.19 1009.94 1009.92 1009.94 1010.01 1010.59 1010.98 1011.52 1012.14 1012.66 1012.96 1013.10 1013.57 1013.90 1014.22 1014.50 1014.81 1015.02 1015.36 1015.54 1015.68 1015.86 1015.92 1015.99 1016.06 1016.18 1016.21 1016.16 1016.10 1016.11 1016.14 1016.18 1016.17 1016.22 1016.28 1016.28 1016.24 1016.16 1016.17 1016.10 1015.96 1015.86
1009.86 1010.51 1011.23 1011.34 1011.37 1010.67 1010.20 1009.79 1009.74 1010.10 1010.11 1010.04 1010.53 1011.37 1011.49 1011.58 1012.02 1012.46 1013.03 1013.57 1014.11 1014.42 1014.68 1014.81 1015.07 1015.42 1015.66 1015.79 1015.91 1016.03 1016.13 1016.21 1016.32 1016.39 1016.33 1016.26 1016.25 1016.22 1016.26 1016.34 1016.37 1016.45 1016.48 1016.44 1016.40 1016.37 1016.34 1016.23 1016.10
1010.30 1011.06 1011.61 1011.50 1010.97 1010.19 1009.65 1009.39 1009.60 1009.96 1009.95 1010.33 1010.53 1011.51 1011.73 1011.91 1011.98 1012.57 1013.09 1013.59 1013.90 1014.49 1014.66 1014.86 1015.10 1015.38 1015.64 1015.87 1016.00 1016.15 1016.26 1016.34 1016.43 1016.46 1016.39 1016.36 1016.47 1016.58 1016.62 1016.66 1016.75 1016.79 1016.77 1016.68 1016.69 1016.59 1016.52 1016.44 1016.31
1010.88 1011.44 1011.94 1011.69 1010.78 1009.86 1009.27 1009.06 1009.40 1009.66 1009.84 1010.37 1010.94 1011.59 1012.04 1012.06 1012.30 1012.92 1013.25 1013.64 1013.81 1014.14 1014.55 1014.88 1015.07 1015.31 1015.58 1015.87 1016.05 1016.26 1016.44 1016.51 1016.56 1016.68 1016.73 1016.82 1016.77 1016.86 1016.98 1017.07 1017.16 1017.10 1017.00 1016.95 1016.98 1016.92 1016.72 1016.71 1016.59
1010.83 1011.60 1011.60 1011.20 1010.53 1009.73 1008.87 1008.77 1009.20 1009.42 1009.71 1010.03 1010.63 1011.91 1012.32 1012.65 1012.57 1012.83 1013.44 1013.92 1014.22 1014.30 1014.63 1014.88 1015.03 1015.30 1015.56 1015.76 1016.01 1016.24 1016.37 1016.46 1016.69 1016.77 1016.92 1017.11 1017.22 1017.35 1017.43 1017.48 1017.39 1017.32 1017.29 1017.36 1017.40 1017.44 1017.29 1017.14 1017.06
1010.61 1011.21 1011.55 1010.96 1010.32 1009.22 1008.39 1008.48 1008.39 1008.89 1009.48 1009.64 1010.00 1011.28 1012.07 1012.16 1012.64 1013.10 1013.75 1014.24 1014.48 1014.74 1014.86 1015.09 1015.18 1015.32 1015.61 1015.82 1015.87 1016.14 1016.36 1016.61 1016.87 1017.09 1017.30 1017.44 1017.61 1017.74 1017.79 1017.77 1017.68 1017.68 1017.73 1017.86 1017.90 1017.94 1017.88 1017.76 1017.61
1010.30 1011.11 1011.18 1010.50 1009.94 1008.86 1008.31 1008.30 1008.46 1008.50 1009.16 1009.39 1009.60 1010.20 1010.31 1011.39 1012.64 1013.41 1014.12 1014.60 1014.92 1015.12 1015.21 1015.27 1015.46 1015.61 1015.80 1015.98 1016.14 1016.30 1016.46 1016.76 1017.11 1017.42 1017.71 1018.09 1018.43 1018.49 1018.37 1018.17 1018.16 1018.23 1018.27 1018.36 1018.34 1018.36 1018.40 1018.46 1018.41
1010.26 1010.69 1010.36 1009.50 1008.94 1008.46 1008.02 1007.86 1008.11 1008.67 1009.24 1009.56 1009.70 1010.00 1010.32 1011.51 1012.55 1013.13 1013.78 1014.28 1014.77 1015.04 1015.25 1015.44 1015.52 1015.79 1015.99 1016.06 1016.41 1016.71 1016.89 1017.21 1017.54 1017.92 1018.27 1018.56 1018.79 1018.87 1018.91 1018.85 1018.82 1018.87 1018.87 1018.87 1018.80 1018.82 1018.81 1018.88 1019.07
1009.83 1009.91 1009.77 1009.24 1008.62 1008.22 1007.78 1007.86 1007.77 1008.37 1009.23 1008.93 1009.03 1009.82 1010.60 1011.57 1012.29 1012.71 1013.38 1013.56 1013.57 1014.38 1014.94 1015.28 1015.57 1015.88 1016.13 1016.44 1016.87 1017.17 1017.39 1017.63 1017.90 1018.19 1018.52 1018.83 1019.15 1019.34 1019.50 1019.61 1019.72 1019.64 1019.50 1019.67 1019.60 1019.57 1019.51 1019.58 1019.58
1009.67 1009.35 1009.19 1008.82 1008.51 1008.06 1007.89 1007.71 1007.93 1007.94 1008.08 1007.75 1008.56 1008.90 1010.17 1011.20 1011.83 1012.26 1012.96 1013.42 1013.91 1014.41 1014.77 1015.20 1015.39 1015.78 1016.36 1016.86 1017.20 1017.43 1017.72 1017.95 1018.31 1018.58 1018.84 1019.11 1019.55 1019.77 1019.94 1020.05 1020.14 1020.11 1020.15 1020.15 1020.19 1020.18 1020.08 1020.01 1019.90
1009.39 1009.28 1009.16 1008.76 1008.70 1008.52 1008.21 1008.11 1008.21 1008.34 1008.35 1008.05 1008.89 1009.59 1009.90 1010.84 1011.59 1012.02 1012.40 1013.18 1013.81 1014.40 1014.91 1015.21 1015.46 1016.05 1016.43 1017.06 1017.50 1017.77 1017.94 1018.07 1018.32 1018.68 1018.99 1019.16 1019.57 1019.93 1020.11 1020.33 1020.31 1020.32 1020.36 1020.48 1020.51 1020.55 1020.59 1020.50 1020.38
1008.94 1009.13 1009.34 1009.17 1009.09 1009.06 1008.79 1008.87 1008.54 1008.76 1008.60 1008.81 1009.25 1009.83 1010.38 1010.90 1011.49 1012.10 1012.53 1013.08 1013.75 1014.27 1014.78 1015.11 1015.59 1016.08 1016.37 1016.89 1017.40 1017.89 1018.13 1018.35 1018.60 1018.84 1019.01 1019.21 1019.46 1019.90 1020.16 1020.40 1020.58 1020.65 1020.65 1020.64 1020.68 1020.86 1020.93 1020.94 1020.78
1008.98 1009.61 1009.72 1009.51 1009.38 1009.43 1009.21 1009.62 1009.53 1009.24 1008.98 1009.58 1009.93 1010.38 1010.70 1011.10 1011.42 1011.80 1012.08 1012.67 1013.24 1013.91 1014.50 1015.10 1015.56 1016.30 1016.58 1016.72 1017.42 1017.82 1018.12 1018.23 1018.55 1018.90 1019.05 1019.32 1019.56 1019.92 1020.24 1020.50 1020.71 1020.88 1020.80 1020.82 1020.84 1020.97 1020.98 1021.05 1020.94
1009.41 1009.71 1009.90 1009.48 1009.51 1009.61 1009.79 1010.19 1009.94 1009.72 1009.80 1010.28 1010.32 1010.65 1010.93 1011.22 1011.37 1011.55 1011.93 1012.35 1012.95 1013.69 1014.28 1014.96 1015.79 1016.12 1016.45 1016.74 1017.30 1017.76 1018.17 1018.35 1018.68 1018.84 1019.06 1019.30 1019.53 1019.84 1020.21 1020.52 1020.74 1020.93 1021.02 1020.99 1021.14 1021.42 1021.43 1021.44 1021.47
1009.69 1009.87 1009.86 1009.81 1009.62 1009.69 1010.12 1010.54 1010.31 1010.16 1010.21 1010.70 1010.70 1010.93 1011.03 1011.22 1011.50 1011.54 1011.67 1012.06 1012.51 1013.09 1014.35 1015.02 1015.52 1016.04 1016.41 1016.96 1017.37 1017.92 1018.26 1018.42 1018.74 1019.00 1019.23 1019.32 1019.55 1019.80 1020.12 1020.46 1020.67 1020.84 1021.10 1021.18 1021.35 1021.58 1021.76 1021.75 1021.61
1009.88 1009.90 1009.97 1009.91 1010.05 1010.15 1010.43 1010.81 1010.67 1010.75 1010.83 1010.69 1010.47 1010.68 1010.53 1010.93 1010.91 1011.51 1011.75 1012.14 1012.65 1013.35 1014.22 1014.72 1015.49 1015.97 1016.66 1017.36 1017.95 1018.38 1018.56 1018.71 1018.85 1019.03 1019.23 1019.22 1019.44 1019.72 1020.13 1020.49 1020.61 1020.77 1021.02 1021.28 1021.45 1021.62 1021.69 1021.73 1021.73
1009.76 1009.79 1010.15 1009.98 1009.96 1010.34 1010.62 1010.91 1010.94 1010.90 1010.96 1010.84 1010.91 1010.84 1010.95 1010.61 1011.15 1011.72 1012.03 1012.42 1012.81 1013.52 1014.32 1014.92 1015.60 1016.28 1016.76 1017.60 1018.25 1018.64 1018.73 1018.84 1019.05 1019.02 1019.00 1019.22 1019.38 1019.65 1019.91 1020.18 1020.41 1020.65 1020.85 1021.07 1021.32 1021.46 1021.63 1021.74 1021.72
1009.77 1009.77 1010.35 1010.45 1010.32 1010.72 1011.09 1011.06 1010.92 1010.85 1010.53 1010.47 1010.61 1010.75 1010.63 1011.13 1011.36 1011.77 1012.47 1012.82 1013.08 1013.67 1014.32 1014.98 1015.40 1016.21 1016.67 1017.13 1017.50 1017.85 1018.30 1018.65 1018.74 1018.99 1019.17 1019.07 1019.27 1019.36 1019.59 1019.82 1020.14 1020.38 1020.73 1020.97 1021.11 1021.29 1021.79 1021.98 1021.93
1009.71 1010.04 1010.60 1010.85 1011.11 1011.26 1011.54 1011.56 1011.10 1010.63 1010.43 1010.23 1010.38 1010.43 1010.82 1011.09 1011.51 1012.06 1012.60 1013.24 1013.50 1013.93 1014.32 1014.86 1015.48 1016.09 1016.58 1017.02 1017.43 1018.04 1018.36 1018.71 1018.84 1018.93 1018.92 1018.84 1019.02 1019.24 1019.41 1019.65 1019.83 1020.11 1020.43 1020.67 1020.88 1021.18 1021.62 1022.03 1022.16
1009.84 1010.09 1010.75 1011.44 1011.97 1012.39 1012.20 1012.05 1011.26 1010.88 1010.68 1010.65 1010.88 1011.17 1011.23 1011.39 1011.80 1012.21 1012.67 1013.37 1013.76 1014.19 1014.74 1015.10 1015.55 1016.08 1016.48 1016.88 1017.26 1017.65 1018.02 1018.59 1018.50 1018.58 1018.58 1018.77 1018.98 1019.09 1019.30 1019.42 1019.76 1020.04 1020.32 1020.52 1020.68 1020.86 1021.29 1021.81 1022.25
1010.30 1010.45 1011.25 1012.03 1012.91 1013.11 1012.78 1012.88 1011.40 1011.42 1011.31 1011.27 1011.60 1011.91 1011.96 1012.00 1012.25 1012.53 1012.89 1013.31 1013.94 1014.48 1015.04 1015.41 1015.76 1016.20 1016.47 1016.83 1017.10 1017.49 1017.96 1018.23 1018.36 1018.57 1018.66 1018.73 1018.83 1018.96 1019.07 1019.28 1019.63 1020.06 1020.43 1020.64 1020.81 1020.99 1021.29 1021.56 1021.94
1010.60 1011.56 1012.52 1013.28 1013.82 1013.76 1012.69 1012.85 1011.85 1011.69 1011.16 1011.66 1012.17 1012.41 1012.51 1012.60 1012.68 1013.10 1013.38 1013.82 1014.49 1015.16 1015.57 1015.80 1016.14 1016.54 1016.83 1017.18 1017.43 1017.69 1018.05 1018.34 1018.58 1018.78 1018.97 1018.98 1019.03 1019.14 1019.18 1019.29 1019.57 1019.84 1020.14 1020.44 1020.65 1020.78 1020.97 1021.17 1021.43
1011.00 1012.25 1013.74 1014.41 1014.44 1013.52 1012.78 1013.22 1011.79 1011.52 1011.53 1011.83 1012.58 1013.05 1013.26 1013.37 1013.37 1013.60 1013.95 1014.52 1015.06 1015.49 1015.77 1016.07 1016.46 1016.83 1016.98 1017.16 1017.43 1017.67 1017.99 1018.36 1018.71 1018.97 1019.13 1019.32 1019.42 1019.48 1019.51 1019.50 1019.63 1019.79 1019.92 1020.09 1020.29 1020.59 1020.77 1020.98 1021.09
1011.32 1011.90 1012.62 1013.15 1013.78 1013.50 1013.30 1012.96 1011.81 1012.16 1012.25 1012.46 1013.12 1013.69 1014.04 1014.28 1014.21 1014.43 1014.71 1015.06 1015.60 1015.97 1016.12 1016.33 1016.66 1017.11 1017.37 1017.60 1017.93 1018.04 1018.21 1018.47 1018.74 1018.94 1019.21 1019.46 1019.58 1019.64 1019.62 1019.70 1019.81 1019.91 1019.98 1020.08 1020.27 1020.42 1020.48 1020.48 1020.43
1011.08 1011.57 1011.61 1012.44 1013.12 1013.36 1013.00 1012.61 1012.20 1012.59 1013.04 1013.47 1013.94 1014.39 1014.81 1014.99 1014.98 1015.13 1015.50 1015.82 1016.26 1016.46 1016.58 1016.77 1017.11 1017.47 1017.78 1018.00 1018.13 1018.33 1018.44 1018.61 1018.93 1019.19 1019.41 1019.61 1019.64 1019.62 1019.68 1019.81 1019.88 1019.92 1020.01 1020.04 1019.99 1019.99 1019.97 1019.98 1019.96
1009.82 1010.67 1011.58 1013.39 1013.50 1013.45 1013.09 1012.99 1012.52 1013.06 1013.60 1014.08 1014.63 1015.06 1015.34 1015.52 1015.59 1015.81 1016.03 1016.28 1016.62 1016.80 1017.06 1017.31 1017.57 1017.86 1018.13 1018.32 1018.51 1018.70 1018.81 1018.94 1019.13 1019.25 1019.44 1019.60 1019.71 1019.77 1019.82 1019.80 1019.85 1019.89 1019.77 1019.72 1019.68 1019.62 1019.49 1019.38 1019.26
1009.99 1010.45 1011.33 1011.81 1012.59 1013.10 1013.52 1012.63 1011.99 1012.37 1013.02 1013.87 1014.69 1015.19 1015.41 1015.70 1015.88 1016.16 1016.46 1016.72 1016.93 1017.11 1017.28 1017.53 1017.77 1018.05 1018.36 1018.53 1018.76 1018.94 1019.10 1019.23 1019.38 1019.47 1019.55 1019.65 1019.75 1019.87 1019.81 1019.79 1019.75 1019.71 1019.60 1019.48 1019.34 1019.10 1018.87 1018.82 1018.62
1009.79 1010.02 1010.63 1011.67 1012.84 1013.51 1013.64 1012.56 1012.04 1012.14 1012.70 1013.53 1014.44 1014.98 1015.36 1015.56 1015.89 1016.34 1016.65 1016.94 1017.30 1017.59 1017.82 1017.95 1018.07 1018.16 1018.29 1018.47 1018.78 1019.11 1019.21 1019.30 1019.44 1019.56 1019.70 1019.84 1019.84 1019.74 1019.72 1019.69 1019.59 1019.41 1019.24 1019.04 1019.00 1018.78 1018.57 1018.49 1018.20
Wind_Speed
3 1 3 4 3 4 2 4 2 3 1 3 2 6 7 4 2 4 0 6 12 9 9 10 13 12 12 11 11 11 12 11 11 11 11 12 12 12 12 12 12 11 13 13 12 13 13 13 13
2 4 4 2 4 2 5 2 6 5 6 7 7 4 5 2 4 6 7 8 12 10 7 7 14 12 12 12 12 12 12 11 11 11 12 13 12 12 12 12 12 11 11 11 12 11 12 13 14
2 1 3 3 3 4 5 4 5 5 8 3 4 5 6 7 4 11 6 13 11 9 8 9 14 13 13 13 12 12 11 11 11 11 12 12 12 12 12 13 12 12 12 12 11 11 12 13 14
2 4 4 3 4 4 5 4 5 7 2 3 5 6 2 3 11 8 16 14 11 8 7 12 15 14 13 13 12 12 12 12 11 11 11 11 10 11 13 13 13 13 12 12 12 11 12 14 15
4 3 2 1 4 4 4 5 7 6 6 5 3 4 1 2 7 17 16 14 14 9 7 9 15 15 14 13 12 11 12 11 12 10 9 10 11 12 13 14 13 12 11 12 12 11 11 13 14
3 2 2 3 5 4 4 5 6 5 5 5 6 5 4 6 16 14 14 12 13 14 10 9 15 15 14 14 13 12 11 11 10 8 9 12 13 14 13 13 12 12 13 13 14 15 15 15 17
5 4 5 4 4 3 4 8 6 6 6 5 10 6 1 5 11 14 12 10 11 11 10 8 10 12 16 15 13 12 12 12 12 11 12 12 13 12 12 12 13 12 14 14 15 17 17 18 19
5 4 4 4 4 6 4 7 7 8 6 3 5 7 5 7 12 11 10 9 7 7 7 6 6 7 6 7 14 14 13 14 13 13 13 13 13 13 11 9 12 14 14 16 17 17 18 19 19
4 3 4 5 6 7 3 5 2 2 7 2 7 8 6 17 14 11 8 7 6 6 5 5 5 5 5 6 8 12 15 15 14 12 14 10 5 6 9 13 15 15 15 15 16 17 18 18 18
4 5 9 5 5 4 4 6 10 6 5 3 2 3 15 19 17 16 14 14 14 10 8 5 6 7 6 6 5 5 6 4 5 6 6 5 5 6 8 11 15 15 15 16 17 18 18 13 5
5 6 5 6 3 6 3 5 4 11 4 7 11 8 19 19 15 16 14 17 20 13 10 9 8 6 5 5 4 2 3 3 4 6 6 5 5 4 4 4 4 4 10 4 7 7 6 7 6
4 5 6 5 3 2 4 4 4 8 8 9 10 20 18 18 17 17 15 14 11 12 10 10 8 7 5 4 3 4 4 3 4 5 7 5 4 5 4 4 4 5 3 6 5 4 5 7 7
4 4 4 4 2 3 1 1 4 3 4 7 11 15 20 17 14 12 13 11 10 12 9 10 8 6 6 6 4 4 4 4 5 5 5 5 5 5 4 4 4 4 3 4 5 5 5 6 6
6 6 4 5 4 2 3 2 4 2 2 8 13 13 11 12 12 5 7 10 12 11 12 9 8 6 7 6 5 5 4 5 5 4 5 6 5 5 4 4 4 4 3 3 4 4 4 4 5
4 6 1 4 5 3 1 4 4 5 3 6 7 7 8 8 7 10 10 13 15 12 9 9 9 6 6 8 6 5 5 5 5 5 6 7 6 5 6 4 3 2 3 5 4 4 4 5 5
7 5 6 5 7 2 2 4 2 4 5 5 6 6 5 6 8 7 8 12 13 12 13 10 8 8 9 9 6 5 4 4 5 5 5 6 6 6 5 4 3 2 3 3 4 4 4 4 4
2 5 4 3 4 4 3 4 4 3 3 6 5 6 7 7 4 7 11 13 15 15 12 10 10 12 9 7 5 5 6 5 4 4 4 6 6 6 5 4 3 3 3 3 2 2 2 2 4
4 6 2 5 6 1 3 4 4 5 4 8 9 10 11 9 11 8 11 10 12 11 11 10 9 9 7 5 5 3 3 3 3 4 4 6 5 6 5 4 4 3 2 2 1 2 1 1 2
3 6 5 2 5 5 9 7 11 8 6 7 8 7 8 7 4 5 7 7 9 9 11 12 11 7 8 3 4 3 4 2 1 3 5 6 5 6 6 4 4 3 3 3 2 1 3 2 3
6 6 4 1 2 1 4 9 6 7 6 7 9 8 7 6 7 8 7 6 11 11 11 9 11 9 6 4 3 3 3 2 2 2 4 5 6 6 5 6 5 5 3 3 3 2 1 1 2
4 6 4 4 2 3 4 6 6 4 5 3 2 4 4 8 9 7 10 7 7 10 12 12 8 9 6 6 4 4 4 3 2 2 3 5 6 6 6 6 5 5 4 4 3 3 4 2 1
6 5 5 6 5 4 2 5 5 3 5 3 5 3 1 2 4 5 9 9 9 8 7 8 8 9 7 8 5 6 5 5 4 3 2 3 5 5 5 4 4 4 3 3 2 3 3 3 3
6 5 7 5 4 2 2 2 6 1 5 6 4 3 2 3 4 8 8 10 5 7 6 5 6 6 4 6 4 4 4 2 1 1 2 2 1 3 4 4 4 4 3 2 4 3 4 3 3
7 8 9 5 3 2 6 6 6 6 7 4 3 1 4 6 3 6 6 7 6 5 5 5 6 3 3 4 3 4 4 3 2 1 0 2 2 1 2 3 3 3 3 2 3 3 4 4 4
5 6 3 2 2 5 3 4 9 5 4 5 7 2 5 5 2 7 9 8 6 6 5 5 6 4 3 5 4 4 4 3 3 3 3 2 1 0 1 1 1 1 1 2 2 3 4 4 4
4 7 6 6 5 4 2 7 6 3 4 6 7 5 5 6 6 7 8 8 7 7 6 7 7 5 5 6 6 5 5 3 3 3 2 2 1 0 1 2 2 3 3 3 3 2 4 5 5
4 4 3 5 3 3 4 5 4 3 4 4 7 7 6 6 6 8 8 7 7 7 6 7 7 7 6 6 6 6 5 5 4 4 3 2 1 0 2 2 2 2 3 3 3 3 5 4 5
4 6 5 2 4 4 3 3 6 5 6 5 5 7 5 5 7 7 7 7 5 6 6 7 7 7 5 5 4 4 4 5 4 4 3 2 1 1 2 3 3 4 4 5 5 4 5 5 5
2 2 2 4 3 5 0 6 6 10 10 11 8 8 8 7 7 7 6 5 6 5 6 5 5 5 4 4 3 4 3 4 3 3 2 1 1 2 3 3 4 5 6 6 5 6 7 7 7
2 1 4 5 3 3 4 7 2 7 9 9 9 8 7 7 7 6 6 6 5 5 5 4 3 4 3 3 4 4 4 3 2 2 0 1 2 2 3 4 5 6 6 6 6 7 6 7 8
Wind_Direction
336 109 93 52 54 63 245 242 161 168 102 334 49 114 125 60 111 187 251 140 130 134 144 141 137 132 128 124 121 114 108 105 100 97 92 88 88 88 83 76 70 66 63 69 64 57 51 46 40
306 131 50 94 95 70 263 228 182 197 156 156 94 98 56 99 109 116 114 153 138 138 128 127 140 134 129 125 125 120 115 110 108 105 101 98 95 92 88 82 76 72 67 60 52 46 42 39 34
237 42 95 104 137 189 219 212 182 157 158 148 98 56 149 151 103 151 151 144 141 136 134 152 143 138 134 129 127 124 120 115 113 112 106 104 102 98 94 87 81 76 71 65 60 51 42 40 38
121 10 32 109 224 237 208 192 174 140 244 58 115 74 71 227 155 160 142 143 136 135 141 151 148 141 140 137 134 129 125 122 119 117 113 109 109 110 104 91 83 76 68 64 59 54 49 46 42
39 62 69 179 252 260 241 186 168 161 156 156 138 178 76 48 122 137 143 147 144 143 147 150 147 148 145 142 139 136 134 129 126 127 120 108 96 93 88 86 80 72 64 61 54 47 48 48 45
52 103 92 221 240 248 266 173 165 155 165 143 86 115 171 135 135 150 150 152 152 148 149 159 155 150 149 146 147 138 133 131 125 105 102 89 87 78 80 81 82 75 70 65 57 49 53 48 45
142 118 209 194 248 289 208 147 170 170 161 212 149 118 63 160 155 151 149 146 149 151 153 157 156 152 153 153 144 139 130 128 123 113 101 91 92 93 89 87 80 80 71 64 58 53 54 53 48
128 119 174 223 217 261 199 165 156 159 211 95 144 162 198 186 157 143 138 142 146 152 158 162 155 144 138 142 141 132 134 125 118 111 108 102 95 82 72 77 84 73 69 65 63 58 56 53 50
139 94 194 213 162 248 165 166 132 133 125 237 169 150 199 137 143 135 126 136 146 153 156 156 135 133 130 126 143 137 134 130 124 113 103 88 74 60 44 77 74 75 72 68 63 57 52 49 43
152 159 209 216 192 240 252 182 151 132 146 217 196 81 137 138 154 154 160 167 173 172 174 155 145 145 144 141 112 104 102 102 109 100 102 93 83 78 68 71 76 73 69 65 63 58 52 45 35
186 196 199 254 253 254 247 175 165 124 226 210 192 155 148 149 167 170 170 175 183 172 170 162 151 153 142 120 112 99 104 111 109 111 114 103 88 77 70 67 56 56 64 47 48 42 39 37 32
175 206 185 230 341 357 169 135 165 164 214 187 183 161 154 163 173 177 177 182 163 170 172 165 159 152 132 115 119 122 117 107 105 112 116 114 95 83 80 78 68 64 44 58 48 44 38 35 31
211 191 203 152 293 356 239 180 204 235 313 115 127 165 172 169 172 188 178 174 162 165 166 171 152 150 133 128 124 112 115 117 125 118 123 125 116 113 108 90 81 73 64 60 56 49 40 33 21
203 179 230 223 198 306 115 331 167 345 7 120 151 175 174 174 166 142 156 161 166 162 172 156 150 151 142 138 143 141 130 134 120 127 137 134 123 123 112 101 85 75 73 71 68 58 44 33 21
154 141 229 225 193 188 134 354 339 311 80 157 154 153 160 182 165 169 177 164 165 172 156 158 145 143 147 144 142 143 156 136 126 130 131 131 127 127 119 111 94 91 75 68 52 38 36 29 7
148 110 159 201 153 256 142 224 264 331 140 180 156 157 172 192 196 184 172 168 167 152 159 148 152 157 150 152 147 142 145 129 130 127 132 136 133 133 128 123 114 104 67 64 53 30 18 15 11
243 172 161 171 207 138 128 214 236 326 150 189 182 199 201 223 212 204 174 169 166 160 152 146 150 159 149 140 136 139 145 135 137 131 141 152 148 146 134 134 132 111 86 67 52 50 55 5 348
176 118 87 154 198 47 142 210 261 228 218 201 194 207 195 200 220 184 177 161 154 143 150 143 149 146 138 122 105 90 104 111 139 156 170 162 162 155 140 144 150 145 121 101 76 65 352 67 355
174 136 148 229 181 143 198 210 220 232 244 244 235 245 234 188 136 144 156 129 122 128 140 153 149 158 141 136 136 130 158 157 181 197 194 186 176 171 166 171 171 170 165 172 149 92 39 348 2
202 176 179 43 110 121 164 243 235 210 237 217 229 236 220 154 166 150 138 140 159 152 154 156 163 159 162 155 149 137 143 164 148 174 220 208 200 196 185 184 195 187 161 184 172 140 97 330 19
189 155 168 160 74 48 98 307 248 223 221 185 41 172 176 176 181 152 154 166 142 160 168 167 162 166 171 150 111 77 70 60 97 207 223 221 209 209 210 207 195 194 181 201 190 159 161 186 295
210 165 135 132 123 196 161 259 259 266 235 195 119 108 174 172 160 159 160 165 171 166 155 163 163 169 174 162 159 157 172 170 209 196 206 214 212 220 218 217 210 207 196 205 204 167 154 137 220
232 145 160 146 95 115 229 120 260 170 243 215 185 168 249 293 194 181 175 167 143 148 167 161 153 152 158 181 186 158 167 175 121 137 217 231 252 224 221 203 196 196 178 192 191 175 180 180 179
143 74 51 53 77 261 214 162 272 200 213 173 181 159 330 319 293 145 121 115 106 100 118 130 136 145 111 145 153 183 193 182 182 223 341 358 358 22 68 103 128 130 146 183 221 221 214 217 212
100 90 53 53 207 229 149 140 249 299 247 181 160 108 359 353 145 149 124 112 109 117 109 116 127 108 138 168 184 194 199 178 197 198 198 186 172 93 24 89 108 167 230 243 234 241 250 245 215
181 156 156 179 173 206 83 223 252 303 30 91 102 101 63 57 86 95 108 108 111 120 120 115 118 107 87 86 76 83 96 107 101 113 112 112 106 334 6 13 352 323 306 288 271 246 256 247 244
183 187 228 67 42 96 212 291 310 71 76 90 109 88 74 75 86 103 103 115 125 115 110 117 106 91 86 95 94 81 86 93 103 97 91 99 101 275 48 26 1 336 311 295 287 257 266 259 259
164 178 75 91 216 227 279 277 239 210 192 165 144 127 125 105 98 110 114 116 105 108 114 112 116 124 135 121 114 113 115 107 108 110 119 124 98 30 4 350 338 321 313 307 304 290 278 272 260
127 135 128 132 131 156 360 266 214 205 188 180 177 173 163 151 147 141 123 113 113 97 92 95 87 98 110 123 119 117 113 107 101 107 100 62 352 315 308 300 303 306 305 300 294 280 275 267 271
133 202 191 120 208 93 136 277 351 252 177 161 173 178 178 170 168 150 138 127 115 110 96 101 107 109 119 129 113 114 120 116 91 85 20 285 290 303 306 304 297 291 284 280 274 275 283 279 278